Time,TemperatureF,DewpointF,PressureIn,WindDirection,WindDirectionDegrees,WindSpeedMPH,WindSpeedGustMPH,Humidity,HourlyPrecipIn,Conditions,Clouds,dailyrainin,SoftwareType,DateUTC
2013-06-18 00:04:00,59.5,58.1,29.89,SSE,157,0.0,-999.0,95,-99.99,,,0.00,Acu-Link.com,2013-06-18 04:04:00,
2013-06-18 00:19:00,59.2,57.8,29.89,SSW,202,0.0,-999.0,95,-99.99,,,0.00,Acu-Link.com,2013-06-18 04:19:00,
2013-06-18 00:34:00,59.0,57.9,29.89,South,180,0.0,-999.0,96,-99.99,,,0.00,Acu-Link.com,2013-06-18 04:34:00,
2013-06-18 00:49:00,58.8,57.7,29.89,SSE,157,0.0,-999.0,96,-99.99,,,0.00,Acu-Link.com,2013-06-18 04:49:00,
2013-06-18 01:05:00,58.6,57.8,29.89,WSW,247,0.0,-999.0,97,-99.99,,,0.00,Acu-Link.com,2013-06-18 05:05:00,
2013-06-18 01:20:00,58.3,57.5,29.88,South,180,0.0,-999.0,97,-99.99,,,0.00,Acu-Link.com,2013-06-18 05:20:00,
2013-06-18 01:35:00,58.1,57.3,29.88,SSE,157,0.0,-999.0,97,-99.99,,,0.00,Acu-Link.com,2013-06-18 05:35:00,
2013-06-18 01:51:00,57.6,56.8,29.88,SE,135,0.0,-999.0,97,-99.99,,,0.00,Acu-Link.com,2013-06-18 05:51:00,
2013-06-18 02:06:00,57.0,55.9,29.88,South,180,0.0,-999.0,96,-99.99,,,0.00,Acu-Link.com,2013-06-18 06:06:00,
2013-06-18 02:21:00,56.8,55.7,29.88,SSE,157,2.2,-999.0,96,-99.99,,,0.00,Acu-Link.com,2013-06-18 06:21:00,
2013-06-18 02:36:00,56.5,55.7,29.88,SSW,202,2.2,-999.0,97,-99.99,,,0.00,Acu-Link.com,2013-06-18 06:36:00,
2013-06-18 03:00:00,56.3,55.5,29.87,SSW,202,0.0,-999.0,97,-99.99,,,0.00,Acu-Link.com,2013-06-18 07:00:00,
2013-06-18 03:16:00,55.2,54.4,29.87,South,180,0.0,-999.0,97,-99.99,,,0.00,Acu-Link.com,2013-06-18 07:16:00,
2013-06-18 03:31:00,55.0,54.2,29.88,SSW,202,0.0,-999.0,97,-99.99,,,0.00,Acu-Link.com,2013-06-18 07:31:00,
2013-06-18 03:46:00,54.7,53.9,29.87,ESE,112,0.0,-999.0,97,-99.99,,,0.00,Acu-Link.com,2013-06-18 07:46:00,
2013-06-18 04:01:00,54.5,53.7,29.88,SW,225,0.0,-999.0,97,-99.99,,,0.00,Acu-Link.com,2013-06-18 08:01:00,
2013-06-18 04:17:00,54.5,53.7,29.88,SW,225,0.0,-999.0,97,-99.99,,,0.00,Acu-Link.com,2013-06-18 08:17:00,
2013-06-18 04:32:00,54.5,53.7,29.88,South,180,0.0,-999.0,97,-99.99,,,0.00,Acu-Link.com,2013-06-18 08:32:00,
2013-06-18 04:47:00,54.3,53.5,29.89,South,180,0.0,-999.0,97,-99.99,,,0.00,Acu-Link.com,2013-06-18 08:47:00,
2013-06-18 05:02:00,54.0,53.2,29.88,South,180,0.0,-999.0,97,-99.99,,,0.00,Acu-Link.com,2013-06-18 09:02:00,
2013-06-18 05:18:00,54.0,53.4,29.89,South,180,0.0,-999.0,98,-99.99,,,0.00,Acu-Link.com,2013-06-18 09:18:00,
2013-06-18 05:33:00,54.0,53.4,29.89,SE,135,0.0,-999.0,98,-99.99,,,0.00,Acu-Link.com,2013-06-18 09:33:00,
2013-06-18 05:48:00,54.0,53.4,29.89,ESE,112,0.0,-999.0,98,-99.99,,,0.00,Acu-Link.com,2013-06-18 09:48:00,
2013-06-18 06:03:00,54.1,53.5,29.90,WNW,292,0.0,-999.0,98,-99.99,,,0.00,Acu-Link.com,2013-06-18 10:03:00,
2013-06-18 06:18:00,54.1,53.5,29.90,NNW,337,0.0,-999.0,98,-99.99,,,0.00,Acu-Link.com,2013-06-18 10:18:00,
2013-06-18 06:33:00,54.5,53.9,29.91,NE,45,0.0,-999.0,98,-99.99,,,0.00,Acu-Link.com,2013-06-18 10:33:00,
2013-06-18 06:49:00,55.0,54.4,29.90,NNE,22,0.0,-999.0,98,-99.99,,,0.00,Acu-Link.com,2013-06-18 10:49:00,
2013-06-18 20:37:00,56.3,55.2,29.92,East,90,0.0,-999.0,96,-99.99,,,0.00,Acu-Link.com,2013-06-19 00:37:00,
2013-06-18 20:52:00,55.6,54.5,29.92,East,90,0.0,-999.0,96,-99.99,,,0.00,Acu-Link.com,2013-06-19 00:52:00,
2013-06-18 21:08:00,55.2,54.4,29.92,East,90,0.0,-999.0,97,-99.99,,,0.00,Acu-Link.com,2013-06-19 01:08:00,
2013-06-18 21:23:00,54.7,53.9,29.92,East,90,0.0,-999.0,97,-99.99,,,0.00,Acu-Link.com,2013-06-19 01:23:00,
2013-06-18 21:38:00,54.3,53.5,29.93,East,90,0.0,-999.0,97,-99.99,,,0.00,Acu-Link.com,2013-06-19 01:38:00,
2013-06-18 21:54:00,54.1,53.5,29.94,East,90,0.0,-999.0,98,-99.99,,,0.00,Acu-Link.com,2013-06-19 01:54:00,
2013-06-18 22:09:00,53.8,53.2,29.94,East,90,0.0,-999.0,98,-99.99,,,0.00,Acu-Link.com,2013-06-19 02:09:00,
2013-06-18 22:24:00,53.4,52.8,29.94,East,90,0.0,-999.0,98,-99.99,,,0.00,Acu-Link.com,2013-06-19 02:24:00,
2013-06-18 22:39:00,52.9,52.4,29.94,East,90,0.0,-999.0,98,-99.99,,,0.00,Acu-Link.com,2013-06-19 02:39:00,
2013-06-18 22:55:00,52.5,52.0,29.93,East,90,0.0,-999.0,98,-99.99,,,0.00,Acu-Link.com,2013-06-19 02:55:00,
2013-06-18 23:10:00,52.0,51.5,29.93,East,90,0.0,-999.0,98,-99.99,,,0.00,Acu-Link.com,2013-06-19 03:10:00,
2013-06-18 23:25:00,51.4,50.9,29.93,East,90,0.0,-999.0,98,-99.99,,,0.00,Acu-Link.com,2013-06-19 03:25:00,
2013-06-18 23:40:00,51.1,50.6,29.94,East,90,0.0,-999.0,98,-99.99,,,0.00,Acu-Link.com,2013-06-19 03:40:00,
2013-06-18 23:56:00,50.5,50.0,29.94,East,90,0.0,-999.0,98,-99.99,,,0.00,Acu-Link.com,2013-06-19 03:56:00,